EHI
0 0 0 0 0 0 0 0 0 0 0 0 0 0 0 0 0 0 0 0 0 0 0 0 0 0 0 0 0 1 3 5 8 9 7 4 1 0 0 0 0 0 0 0
0 0 0 0 0 0 0 0 0 0 0 0 0 0 0 0 0 0 0 0 0 0 0 0 0 0 0 0 1 2 3 5 9 12 10 6 2 0 0 0 0 0 0 0
0 0 0 0 0 0 0 0 0 0 0 0 0 0 0 0 0 0 0 0 0 0 0 0 0 0 0 0 1 1 2 5 10 16 17 11 5 2 0 0 0 0 0 0
0 0 0 0 0 0 0 0 0 0 0 0 0 0 0 0 0 0 0 0 0 0 0 0 0 0 0 0 1 1 1 3 8 16 18 13 7 3 1 0 0 0 0 0
0 0 0 0 0 0 0 0 0 0 0 0 0 0 0 0 0 0 0 0 0 0 0 0 0 0 0 0 0 1 1 3 6 11 13 10 5 2 0 0 0 0 0 0
0 0 0 0 0 0 0 0 0 0 0 0 0 0 0 0 0 0 0 0 0 0 0 0 0 0 0 0 0 0 1 2 4 7 8 6 3 1 0 0 0 0 0 0
0 0 0 0 0 0 0 0 0 0 0 0 0 0 0 0 0 0 0 0 0 0 0 0 0 0 0 0 0 0 0 0 2 3 4 4 2 1 0 0 0 0 0 0
0 0 0 0 0 0 0 0 0 0 0 0 0 0 0 0 0 0 0 0 0 0 0 0 0 0 0 0 0 0 0 0 0 1 1 2 1 0 0 0 0 0 0 0
0 0 0 0 0 0 0 0 0 0 0 0 0 0 0 0 0 0 0 0 0 0 0 0 0 0 0 0 0 0 0 0 0 0 0 0 0 0 0 0 0 0 0 0
0 0 0 0 0 0 0 0 0 0 0 0 0 0 0 0 0 0 0 0 0 0 0 0 0 0 0 0 0 0 0 0 0 0 0 0 0 0 0 0 0 0 0 0
0 0 0 0 0 0 0 0 0 0 0 0 0 0 0 0 0 0 0 0 0 0 0 0 0 0 0 0 0 0 0 0 0 0 0 0 0 0 0 0 0 0 0 0
0 0 0 0 0 0 0 0 0 0 0 0 0 0 0 0 0 0 0 0 0 0 0 0 0 0 0 0 0 0 0 0 0 0 0 0 0 0 0 0 0 0 0 0
0 0 0 0 0 0 0 0 0 0 0 0 0 0 0 0 0 0 0 0 0 0 0 0 0 0 0 0 0 0 0 0 0 0 0 0 0 0 0 0 0 0 0 0
0 0 0 0 0 0 0 0 0 0 0 0 0 0 0 0 0 0 0 0 0 0 0 0 0 0 0 0 0 0 0 0 0 0 0 0 0 0 0 0 0 0 0 0
0 0 0 0 0 0 0 0 0 0 0 0 0 0 0 0 0 0 0 0 0 0 0 0 0 0 0 0 0 0 0 0 0 0 0 0 0 0 0 0 0 0 0 0
0 0 0 0 0 0 0 0 0 0 0 0 0 0 0 0 0 0 0 0 0 0 0 0 0 0 0 0 0 0 0 0 0 0 0 0 0 0 0 0 0 0 0 0
0 0 0 0 0 0 0 0 0 0 0 0 0 0 0 0 0 0 0 0 0 0 0 0 0 0 0 0 0 0 0 0 0 0 0 0 0 0 0 0 0 0 0 0
0 0 0 0 0 0 0 0 0 0 0 0 0 0 0 0 0 0 0 0 0 0 0 0 0 0 0 0 0 0 0 0 0 0 0 0 0 0 0 0 0 0 0 0
0 0 0 0 0 0 0 0 0 0 0 0 0 0 0 0 0 0 0 0 0 0 0 0 0 0 0 0 0 0 0 0 0 0 0 0 0 0 0 0 0 0 0 0
0 0 0 0 0 0 0 0 0 0 0 0 0 0 0 0 0 0 0 0 0 0 0 0 0 0 0 0 0 0 0 0 0 0 0 0 0 0 0 0 0 0 0 0
0 0 0 0 0 0 0 0 0 0 0 0 0 0 0 0 0 0 0 0 0 0 0 0 0 0 0 0 0 0 0 0 0 0 0 0 0 0 0 0 0 0 0 0
0 0 0 0 0 0 0 0 0 0 0 0 0 0 0 0 0 0 0 0 0 0 0 0 0 0 0 0 0 0 0 0 0 0 0 0 0 0 0 0 0 0 0 0
0 0 0 0 0 0 0 0 0 0 0 0 0 0 0 0 0 0 0 0 0 0 0 0 0 0 0 0 0 0 0 0 0 0 0 0 0 0 0 0 0 0 0 0
0 0 0 0 0 0 0 0 0 0 0 0 0 0 0 0 0 0 0 0 0 0 0 0 0 0 0 0 0 0 0 0 0 0 0 0 0 0 0 0 0 0 0 0
0 0 0 0 0 0 0 0 0 0 0 0 0 0 0 0 0 0 0 0 0 0 0 0 0 0 0 0 0 0 0 0 0 0 0 0 0 0 0 0 0 0 0 0
0 0 0 0 0 0 0 0 0 0 0 0 0 0 0 0 0 0 0 0 0 0 0 0 0 0 0 0 0 0 0 0 0 0 0 0 0 0 0 0 0 0 0 0
Wind_Speed
6 7 11 14 15 9 9 13 13 12 10 13 13 12 11 8 6 6 7 7 8 7 5 4 4 4 4 4 4 5 6 7 6 5 5 5 5 4 4 4 5 6 7 7
5 10 12 12 13 12 9 10 10 7 8 8 8 11 11 10 10 8 8 7 6 5 4 4 3 3 3 3 3 2 3 5 5 4 4 4 4 3 4 4 5 6 6 7
7 6 10 12 13 13 11 9 8 6 5 3 4 8 12 10 9 8 7 6 5 4 4 4 4 3 2 2 2 1 1 2 3 3 2 2 2 2 3 4 5 6 7 7
4 6 9 11 12 12 10 6 5 6 6 5 7 5 11 13 11 10 8 6 5 3 2 2 3 3 3 2 2 1 1 1 1 2 3 3 4 4 5 4 4 6 8 8
4 6 10 12 10 9 3 1 2 4 4 3 6 5 6 10 11 11 9 7 5 3 3 3 3 3 4 3 2 2 2 1 1 0 1 3 3 4 3 3 4 5 6 8
2 2 4 6 5 5 4 4 3 1 1 5 8 7 5 6 10 9 7 6 5 4 4 4 4 4 4 3 2 2 2 2 2 2 1 2 3 3 3 4 4 4 3 4
2 2 1 3 6 4 5 6 4 4 4 6 8 7 5 4 7 9 8 7 6 5 5 5 5 4 4 3 2 1 1 2 2 2 2 2 2 3 4 4 4 4 3 2
5 5 4 4 5 6 7 5 2 4 5 4 4 6 1 6 8 9 8 7 5 4 4 4 5 4 4 4 3 2 2 2 3 3 2 3 2 1 2 3 3 3 2 2
4 4 5 4 2 4 6 5 1 1 1 2 5 4 4 5 6 7 7 6 5 5 5 5 5 5 4 4 4 3 3 3 4 4 4 3 3 3 3 3 2 2 2 1
3 5 4 3 2 1 0 2 2 2 2 3 6 8 7 10 9 8 8 7 6 5 5 5 5 5 4 4 3 4 4 4 4 4 4 3 4 4 3 3 2 2 2 2
3 5 5 4 5 6 4 2 3 3 3 2 2 1 2 12 10 9 7 6 6 5 5 5 4 4 4 3 3 4 4 4 4 4 4 4 4 5 5 4 4 3 3 3
1 4 4 3 1 1 3 4 4 3 3 3 1 1 2 7 8 7 6 5 5 5 5 4 4 4 3 3 4 4 4 4 4 4 4 4 5 5 6 6 6 5 5 5
1 3 5 3 2 3 4 5 5 1 1 2 1 1 2 5 7 6 6 4 4 4 5 4 4 3 3 3 3 3 4 4 4 4 4 5 5 6 6 6 6 7 7 7
2 1 1 2 2 6 5 7 7 5 3 3 3 3 4 5 6 5 4 4 3 4 4 4 3 3 3 3 3 4 4 4 4 4 5 5 6 6 6 6 7 7 7 7
2 0 0 1 1 4 5 7 9 8 6 3 1 2 5 6 5 5 4 3 3 3 4 4 3 3 3 3 3 3 3 3 4 5 5 5 5 5 6 6 7 7 7 8
1 1 1 0 1 2 3 6 8 9 9 7 4 3 1 3 3 3 3 3 3 3 4 4 4 4 3 3 3 3 3 3 4 5 5 5 5 6 6 6 7 7 7 8
1 1 1 1 2 1 5 9 10 8 6 7 8 5 3 3 3 3 2 2 3 3 4 4 4 4 4 3 3 3 3 4 5 5 5 5 5 6 6 7 7 7 7 8
1 1 0 0 1 4 2 2 2 6 7 6 3 2 2 2 2 1 1 2 3 4 4 4 4 4 4 4 3 4 4 4 5 5 5 5 5 6 6 6 7 6 6 6
1 1 1 1 3 4 3 2 1 2 2 5 5 3 2 1 1 0 3 4 4 4 5 4 4 4 4 4 4 4 5 4 5 5 4 4 5 5 6 6 6 5 6 6
1 1 1 1 2 2 2 3 1 0 1 2 2 3 3 3 1 1 4 5 5 5 5 4 4 5 4 4 4 5 5 5 5 4 4 4 5 5 6 6 5 5 5 5
2 2 2 3 2 2 2 3 2 1 2 3 4 4 3 2 2 3 4 4 4 5 5 5 4 4 4 4 4 5 5 5 5 5 5 5 5 5 5 5 4 4 4 5
4 3 3 3 3 3 3 2 1 2 3 4 4 4 4 3 3 3 3 3 4 4 4 4 4 4 4 4 5 5 5 5 5 5 5 5 5 4 5 5 4 4 4 4
3 3 2 3 2 2 3 3 4 3 3 3 3 3 3 1 1 1 2 3 4 4 4 4 5 5 4 3 4 6 5 6 6 6 5 5 5 4 4 4 4 3 3 3
2 1 1 1 1 4 4 3 3 3 3 4 3 3 2 1 0 0 1 3 4 4 5 5 5 5 5 4 4 5 6 6 6 6 5 4 4 4 3 2 2 2 2 2
1 1 2 3 2 2 3 3 4 4 4 3 3 2 2 2 1 1 1 2 3 4 4 5 5 5 6 5 5 6 6 7 6 6 5 4 4 4 3 3 3 3 2 3
3 3 2 1 1 1 3 5 5 3 3 3 2 2 2 2 2 2 2 2 3 4 5 5 5 5 6 6 6 6 6 7 7 6 5 4 3 3 3 3 3 6 5 6
Wind_Direction
183 195 200 198 204 214 201 204 208 207 191 196 215 224 228 225 207 222 235 235 229 219 204 178 173 175 174 181 192 192 186 189 184 182 188 194 204 206 208 213 212 207 202 200
180 214 211 205 208 226 239 222 212 197 186 190 217 230 229 224 208 209 224 234 230 213 189 173 161 159 164 169 179 200 199 189 185 184 187 189 190 204 207 206 218 221 215 208
201 206 204 205 204 211 228 231 215 184 147 197 240 244 229 222 212 211 217 231 247 224 197 175 165 152 131 126 148 196 226 202 181 172 170 175 187 202 209 212 214 219 222 222
224 224 199 198 205 203 217 224 221 178 161 204 204 244 222 205 204 210 213 213 220 219 193 153 133 125 119 98 61 24 328 304 178 168 172 183 200 213 220 219 219 216 216 222
198 202 194 196 200 199 192 177 182 191 201 244 201 229 260 181 192 199 197 195 187 173 150 116 96 95 90 79 54 18 352 343 351 257 195 201 222 229 237 237 235 227 221 220
202 204 205 191 173 163 136 121 110 165 215 242 215 210 251 191 187 175 164 152 144 135 124 117 112 110 102 93 68 31 7 357 359 347 310 246 243 247 258 262 255 246 235 225
144 177 164 141 137 145 164 149 151 169 199 233 208 206 246 166 151 143 139 135 132 134 140 141 138 133 119 108 93 61 38 9 360 344 322 298 274 260 250 254 257 261 252 239
161 160 167 164 164 166 186 192 179 181 192 206 189 213 140 93 100 110 117 122 130 138 130 122 116 108 104 96 79 57 43 25 17 7 344 335 326 299 283 275 272 270 263 252
159 124 122 133 137 155 169 207 289 330 258 192 205 184 102 115 118 124 131 140 147 136 124 117 107 95 88 79 65 50 39 34 27 13 3 358 352 341 315 304 300 292 294 298
113 115 125 121 118 31 235 166 155 191 215 238 204 189 179 169 167 161 157 155 143 131 122 113 104 93 82 76 64 49 41 39 29 18 12 11 3 354 345 345 338 332 332 344
121 118 130 151 187 176 168 181 203 222 272 271 239 133 46 163 163 161 152 137 127 124 119 111 105 96 89 77 62 52 40 39 30 25 22 19 14 7 3 7 10 15 20 23
142 121 131 148 129 290 204 201 192 194 241 229 263 335 355 135 140 140 130 120 119 118 112 111 110 103 91 77 63 52 43 41 32 26 33 30 24 22 27 29 26 30 37 39
129 133 127 144 172 195 215 217 219 218 340 271 246 137 49 109 123 125 124 126 129 131 129 122 114 104 89 75 64 57 54 44 34 34 41 42 36 38 39 36 36 42 48 50
319 203 204 177 163 163 189 198 204 189 195 238 225 153 154 146 142 141 147 150 149 141 135 131 116 103 95 80 67 63 58 46 42 47 52 51 46 46 47 46 46 48 55 58
302 285 115 55 88 157 185 193 199 205 216 227 236 154 167 169 166 160 155 150 149 142 139 136 127 116 109 95 81 73 66 55 55 61 62 59 56 54 55 54 54 56 59 64
280 247 116 156 184 195 226 221 210 214 226 240 261 279 148 141 146 156 170 174 175 161 149 139 131 128 122 110 98 89 78 69 71 72 68 65 65 64 61 61 62 63 64 64
246 228 216 206 151 221 244 222 213 210 210 216 228 227 173 172 178 182 187 176 164 149 142 138 136 127 119 114 109 107 97 84 80 78 73 72 74 74 70 72 69 67 68 69
270 249 222 215 180 237 217 47 182 209 216 214 221 192 147 153 142 117 116 136 127 122 124 124 123 119 115 112 108 102 97 94 92 86 83 83 84 85 83 79 77 74 73 74
293 251 238 232 247 255 169 137 130 176 219 207 210 213 181 122 97 154 83 81 91 103 111 114 116 119 116 120 121 112 106 100 94 89 87 90 96 96 92 87 82 80 82 80
282 288 265 239 262 278 98 107 68 134 201 88 146 168 157 144 195 162 101 89 87 89 97 104 107 113 120 124 122 118 115 108 103 99 96 96 100 101 99 96 94 91 92 93
192 214 231 242 250 283 105 137 152 199 131 88 85 89 91 104 96 116 106 100 105 103 108 114 119 122 124 123 123 122 116 113 112 109 104 100 100 103 105 101 97 98 95 91
188 196 204 210 227 237 134 142 127 91 92 78 69 69 72 73 84 101 113 121 124 124 131 134 132 126 120 125 129 127 126 123 120 117 112 109 108 112 114 112 107 105 106 101
196 208 202 194 187 117 110 94 90 74 75 63 60 59 60 64 130 137 151 153 151 152 152 147 143 136 132 131 132 136 137 134 128 123 120 120 118 116 122 125 128 125 116 111
204 179 266 283 183 149 142 117 99 77 66 54 47 38 23 343 329 168 180 170 164 162 159 157 154 151 152 144 137 138 140 140 136 133 133 136 134 132 123 118 121 118 112 108
271 176 233 249 233 148 140 112 96 79 64 50 38 25 5 338 307 260 226 192 176 168 162 163 166 166 161 153 150 146 147 146 144 145 148 151 146 137 121 98 85 103 86 118
221 205 217 236 20 105 106 86 73 71 55 34 6 343 336 313 287 270 241 201 174 170 167 170 174 170 162 158 158 158 158 157 156 157 158 154 148 141 136 126 97 83 104 95